Погода в Серро-де-Паско

Перу     10°41′14″S   76°14′29″W
темп.,
°C
ветер,
м/с
пор.,
м/с
влажн.,
%
обл.,
%
осадки,
мм/ч
давл.,
гПа
погр.,
м
15 апреля, чт
чт1501:00+3с2294100 0.3 1021205
04:00+2ююв1196100 0.1 1021103
07:00+3с2290100 0.1 1021146
10:00+8ссв3370100 0.1 1020911
13:00+9ссв4466100 0.9 10151048
16:00+9св337090 1.8 1013855
19:00+3ссв239298 2.6 101934
22:00+4ссв119098 0.0 102190
16 апреля, пт
пт1601:00+4св118086 0.0 101912
04:00+3юв117959 0.0 101914
07:00+2ююв118717 0.0 102351
10:00+9св346375 0.1 10191348
13:00+10ссв446077 1.1 10151560
16:00+10св336062 1.1 10131212
19:00+3ссв2289100 1.3 101911
22:00+1ю019395 0.0 102310
17 апреля, сб
сб1701:000з1195100 0.0 102210
04:000ююз119782 0.0 102210
07:00+2ю119187 0.0 102349
10:00+9в2355100 0.0 10191135
13:00+13св444599 0.1 10122498
16:00+8вюв447492 2.3 1014818
19:00+2юв2292100 3.3 102017
22:00+1вюв1195100 0.0 102410
18 апреля, вс
вс1801:00+1ююз119393 0.0 102346
04:000ю1195100 0.0 102310
07:00+1ююз1194100 0.0 102554
10:00+8св3467100 0.1 10201232
13:00+10св455881 0.9 10151420
16:00+10всв455726 1.0 10131376
19:00+2с12927 1.3 102010
22:000зюз119562 0.1 102410
19 апреля, пн
пн1901:000зюз119543 0.1 102310
04:00−1юз01946 0.0 102210
07:00+1ю119024 0.0 102451
10:00+9всв23555 0.0 10201422
13:00+11св555171 0.8 10151921
16:00+10св555817 0.8 10131370
19:00+2ссв018795 1.5 101910
22:00+1ю229587 0.4 102414